FW5276 Weather Reports


time (UTC)temp
C
wind
direction
speed
KPH
gust
KPH
rain 1hr
cm
rain 24hr
cm
rain mn
cm
humidity
%
barometer
mb
20260506140101 12 243 0.0 1.6 0.00 0.00 0.00 81 1019.6
20260506134617 12 3 0.0 1.6 0.00 0.00 0.00 82 1019.4
20260506133054 12 348 0.0 1.6 0.00 0.00 0.00 84 1019.2
20260506131606 11 345 0.0 1.6 0.00 0.00 0.00 85 1019.0
20260506130148 11 18 0.0 1.6 0.00 0.00 0.00 85 1019.0
20260506124545 11 281 0.0 0.0 0.00 0.00 0.00 84 1018.8
20260506123045 12 274 0.0 1.6 0.00 0.00 0.00 84 1018.5
20260506121540 12 272 0.0 0.0 0.00 0.00 0.00 84 1018.5
20260506120037 12 296 0.0 1.6 0.00 0.00 0.00 84 1018.5
20260506114542 12 253 0.0 1.6 0.00 0.00 0.00 84 1018.5
20260506113035 12 294 0.0 1.6 0.00 0.00 0.00 83 1018.4
20260506111528 12 304 0.0 1.6 0.00 0.00 0.00 83 1018.3
20260506110026 12 292 0.0 1.6 0.00 0.00 0.00 82 1018.2
20260506104522 12 285 0.0 4.8 0.00 0.00 0.00 82 1018.1
20260506103025 13 31 0.0 3.2 0.00 0.00 0.00 81 1018.1
20260506101516 13 327 0.0 1.6 0.00 0.00 0.00 81 1018.0
20260506100021 13 326 0.0 1.6 0.00 0.00 0.00 80 1017.9
20260506094515 13 288 0.0 1.6 0.00 0.00 0.00 80 1017.8
20260506093008 13 287 0.0 1.6 0.00 0.00 0.00 79 1017.6
20260506091505 13 269 0.0 1.6 0.00 0.00 0.00 79 1017.6
20260506090005 13 282 0.0 3.2 0.00 0.00 0.00 78 1017.7
20260506084606 13 259 0.0 1.6 0.00 0.00 0.00 77 1017.9
20260506083115 13 281 0.0 3.2 0.00 0.00 0.00 77 1017.9
20260506081554 14 34 1.6 4.8 0.00 0.00 0.00 76 1017.9
20260506073043 15 328 0.0 4.8 0.00 0.00 0.00 75 1017.6
20260506071540 15 314 1.6 6.4 0.00 0.00 0.00 74 1017.3
20260506061534 15 319 0.0 4.8 0.00 0.00 0.00 73 1016.7
20260506044517 16 276 0.0 6.4 0.00 0.00 0.00 69 1016.0
20260506043013 17 285 0.0 4.8 0.00 0.00 0.00 68 1015.8
20260506041507 17 313 0.0 1.6 0.00 0.00 0.00 67 1015.7
20260506040005 17 274 0.0 3.2 0.00 0.00 0.00 66 1015.4
20260506034506 17 9 0.0 4.8 0.00 0.00 0.00 65 1015.5
20260506033101 17 350 0.0 9.7 0.00 0.00 0.00 65 1015.1
20260506031601 18 252 0.0 9.7 0.00 0.00 0.00 64 1015.0
20260506030055 18 340 6.4 11.3 0.00 0.00 0.00 62 1014.6
20260506024600 18 342 6.4 19.3 0.00 0.00 0.00 60 1014.6
20260506023052 19 4 3.2 9.7 0.00 0.00 0.00 58 1014.4
20260506021548 20 13 1.6 11.3 0.00 0.00 0.00 57 1014.2
20260506020057 19 309 4.8 14.5 0.00 0.00 0.00 57 1014.0
20260506014544 19 303 1.6 12.9 0.00 0.00 0.00 57 1014.1
20260506013041 20 7 3.2 9.7 0.00 0.00 0.00 56 1014.0
20260506011601 20 329 4.8 9.7 0.00 0.00 0.00 54 1014.1
20260506010038 20 311 6.4 14.5 0.00 0.00 0.00 53 1014.0
20260506004549 21 274 3.2 9.7 0.00 0.00 0.00 53 1014.2
20260506003034 21 22 1.6 9.7 0.00 0.00 0.00 53 1014.1
20260506001530 20 323 4.8 12.9 0.00 0.00 0.00 55 1014.3
20260506000127 20 215 0.0 8.0 0.00 0.00 0.00 54 1014.0
20260505234538 21 249 3.2 14.5 0.00 0.00 0.00 52 1014.1
20260505233024 21 291 1.6 14.5 0.00 0.00 0.00 53 1014.1
20260505231521 20 54 3.2 17.7 0.00 0.00 0.00 52 1014.2
20260505230042 21 279 3.2 12.9 0.00 0.00 0.00 51 1014.1
20260505224525 21 270 3.2 14.5 0.00 0.00 0.00 52 1014.3
20260505223016 20 264 3.2 14.5 0.00 0.00 0.00 54 1014.4
20260505221510 20 238 6.4 20.9 0.00 0.00 0.00 54 1014.5
20260505220008 20 233 9.7 25.7 0.00 0.00 0.00 54 1014.3
20260505214511 20 326 1.6 12.9 0.00 0.00 0.00 53 1014.7
20260505213005 20 284 4.8 9.7 0.00 0.00 0.00 50 1014.4
20260505211503 20 336 4.8 14.5 0.00 0.00 0.00 50 1014.6
20260505210057 20 266 11.3 20.9 0.00 0.00 0.00 51 1014.7
20260505204600 20 273 4.8 17.7 0.00 0.00 0.00 51 1014.5
20260505203101 20 338 4.8 12.9 0.00 0.00 0.00 52 1014.7
20260505201550 20 130 1.6 19.3 0.00 0.00 0.00 55 1014.7
20260505200047 18 195 4.8 16.1 0.00 0.00 0.00 53 1014.8
20260505194558 18 286 6.4 17.7 0.00 0.00 0.00 57 1014.9
20260505193039 18 302 8.0 16.1 0.00 0.00 0.00 57 1015.1
20260505191549 18 274 4.8 17.7 0.00 0.00 0.00 57 1015.0
20260505190040 18 290 3.2 9.7 0.00 0.00 0.00 59 1015.1
20260505184533 17 266 4.8 14.5 0.00 0.00 0.00 62 1015.3
20260505183025 17 300 4.8 12.9 0.00 0.00 0.00 62 1015.3
20260505181521 17 288 6.4 16.1 0.00 0.00 0.00 62 1015.4
20260505180018 16 354 3.2 19.3 0.00 0.00 0.00 61 1015.2
20260505174512 16 342 1.6 14.5 0.00 0.00 0.00 63 1015.0
20260505173007 15 328 4.8 11.3 0.00 0.00 0.00 65 1014.8
20260505170055 14 263 0.0 9.7 0.00 0.00 0.00 71 1014.9
20260505164601 14 233 0.0 3.2 0.00 0.00 0.00 72 1014.8
20260505163050 13 304 1.6 8.0 0.00 0.00 0.00 73 1014.7
20260505161553 13 353 4.8 11.3 0.00 0.00 0.00 73 1014.5
20260505153042 12 282 1.6 4.8 0.00 0.00 0.00 76 1014.6
20260505151538 12 306 0.0 8.0 0.00 0.00 0.00 77 1014.5